MDT,Max TemperatureF,Mean TemperatureF,Min TemperatureF,Max Dew PointF,MeanDew PointF,Min DewpointF,Max Humidity, Mean Humidity, Min Humidity, Max Sea Level PressureIn, Mean Sea Level PressureIn, Min Sea Level PressureIn, Max VisibilityMiles, Mean VisibilityMiles, Min VisibilityMiles, Max Wind SpeedMPH, Mean Wind SpeedMPH, Max Gust SpeedMPH,PrecipitationIn, CloudCover, Events, WindDirDegrees
2013-8-1,78,65,51,57,52,48,89,65,41,30.16,30.01,29.85,10,10,5,21,8,31,0.15,2,Rain-Thunderstorm,59
2013-8-2,67,59,50,56,53,50,100,83,65,30.20,30.04,29.82,10,7,0,20,9,25,0.01,5,Fog,69
2013-8-3,70,59,47,61,55,46,100,81,61,30.28,30.16,30.00,10,7,0,22,6,29,1.05,7,Fog-Rain,126
2013-8-4,82,70,58,63,58,56,100,74,48,30.19,30.06,29.92,10,6,0,16,5,25,0.01,4,Fog-Rain,76
2013-8-5,79,66,53,58,52,47,93,66,39,30.18,29.95,29.83,10,9,2,18,5,30,0.24,2,Rain,301
2013-8-6,72,61,50,54,51,47,96,74,51,30.05,29.93,29.83,10,9,2,14,4,17,0.10,2,Rain,128
2013-8-7,73,61,49,54,50,47,93,71,49,30.02,29.99,29.93,10,10,8,20,6,32,0.12,5,Rain,303
2013-8-8,72,60,48,58,52,44,93,73,53,30.06,30.02,29.96,10,10,7,15,4,18,0.28,2,Rain,94
2013-8-9,70,61,51,55,50,44,93,73,52,30.25,30.12,30.04,10,10,10,17,6,24,0.06,5,Rain,36
2013-8-10,76,64,51,58,53,42,100,71,42,30.31,30.07,30.00,10,10,9,13,3,22,0.02,3,Rain,207
2013-8-11,73,61,49,59,54,43,100,74,47,30.27,30.15,30.01,10,7,0,51,9,58,1.38,4,Fog-Rain,13
2013-8-12,75,61,47,60,51,42,93,67,41,30.26,30.10,30.04,10,9,4,13,4,16,0.08,1,Rain,42
2013-8-13,70,61,51,59,56,48,100,81,61,30.30,30.16,30.04,10,7,0,16,6,21,0.18,6,Fog-Rain,55
2013-8-14,75,62,48,57,51,46,96,69,41,30.20,30.07,30.01,10,9,2,15,5,24,0.19,2,Rain,302
2013-8-15,74,62,49,59,53,40,100,71,41,30.25,30.08,29.99,10,7,0,18,5,23,0.02,2,Fog-Rain,23
2013-8-16,79,64,49,59,54,46,100,66,32,30.24,30.07,30.00,10,8,0,13,3,17,0.00,0,Fog,244
2013-8-17,86,70,54,58,50,26,93,53,12,30.03,29.95,29.90,10,10,10,10,4,15,0.00,0,,280
2013-8-18,78,66,54,60,55,52,93,69,45,30.01,29.94,29.90,10,10,10,18,4,24,0.00,0,,15
2013-8-19,81,67,53,57,51,45,86,59,31,29.99,29.95,29.90,10,10,10,12,5,15,0.00,0,,9
2013-8-20,86,71,56,55,50,44,86,57,27,29.89,29.87,29.86,10,10,10,13,4,18,0.00,1,,327
2013-8-21,72,62,52,54,50,45,86,67,48,30.11,30.00,29.90,10,10,7,22,5,29,0.06,3,Rain,28
2013-8-22,74,62,49,58,54,46,93,71,49,30.30,30.15,30.05,10,10,4,14,6,20,0.00,2,,111
2013-8-23,79,69,58,62,58,54,100,71,42,30.21,30.00,29.81,10,6,0,12,4,18,0.00,3,Fog,213
2013-8-24,84,72,60,53,49,47,65,48,31,29.91,29.84,29.78,10,10,10,20,8,26,0.00,0,,267
2013-8-25,83,70,56,54,51,45,72,52,31,30.01,29.96,29.91,10,10,10,10,3,15,0.00,2,,345
2013-8-26,86,73,59,56,50,43,73,48,23,29.96,29.92,29.88,10,10,10,17,6,24,0.00,0,,272
2013-8-27,86,72,58,54,49,47,72,50,27,29.96,29.93,29.90,10,10,10,17,5,22,T,0,,284
2013-8-28,83,72,60,61,55,50,84,63,42,30.01,29.95,29.92,10,10,10,21,4,28,T,1,,331
2013-8-29,86,72,58,55,50,44,69,51,33,30.04,29.98,29.92,10,10,10,15,6,17,0.00,1,,38
2013-8-30,88,73,57,60,55,50,84,58,31,30.06,29.99,29.92,10,10,10,17,5,22,T,1,,270
2013-8-31,83,67,51,55,48,39,84,58,31,30.14,29.94,29.88,10,10,10,17,6,24,0.00,1,,352